Back to catalog

COSMOS 2251 DEB

AliveLEO
NORAD 36061·DEBRIS·🇷🇺 Russia

Launched Jun 16, 1993 from Plesetsk Cosmodrome

Loading…

Next Passes (next 24 hours)

TLE

AgingSource: Space-Track

Epoch: Sep 12, 2026, 03:48 UTC

1 36061U 93036AXY 26255.15886378  .00000403  00000-0  15223-3 0  9996
2 36061  74.0225 219.1124 0040051 242.9503 116.7560 14.34095905690239

Track COSMOS 2251 DEB in real time with AllMySat

Download on the App Store